owner,sensor,date,latitude,longitude,vertical_datum,sea_water_practical_salinity,qcFlag 
NERRS,ioos:station:NOAA.NERRS:gndbhwq:1,2016-06-01T00:45:00Z,30.4178,-88.4054,1.27,15.4,1111122 
NERRS,ioos:station:NOAA.NERRS:gndbhwq:1,2016-06-01T01:45:00Z,30.4178,-88.4054,1.29,15.7,1111122 
NERRS,ioos:station:NOAA.NERRS:gndbhwq:1,2016-06-01T02:45:00Z,30.4178,-88.4054,1.31,15.4,1111122 
NERRS,ioos:station:NOAA.NERRS:gndbhwq:1,2016-06-01T03:45:00Z,30.4178,-88.4054,1.28,15.7,1111122 
NERRS,ioos:station:NOAA.NERRS:gndbhwq:1,2016-06-01T04:45:00Z,30.4178,-88.4054,1.29,15.6,1111122 
NERRS,ioos:station:NOAA.NERRS:gndbhwq:1,2016-06-01T06:45:00Z,30.4178,-88.4054,1.3,15.8,1111122 
NERRS,ioos:station:NOAA.NERRS:gndbhwq:1,2016-06-01T07:45:00Z,30.4178,-88.4054,1.34,15.7,1111122 
NERRS,ioos:station:NOAA.NERRS:gndbhwq:1,2016-06-01T08:45:00Z,30.4178,-88.4054,1.39,15.8,1111122 
NERRS,ioos:station:NOAA.NERRS:gndbhwq:1,2016-06-01T09:45:00Z,30.4178,-88.4054,1.44,15.5,1111122 
NERRS,ioos:station:NOAA.NERRS:gndbhwq:1,2016-06-01T10:45:00Z,30.4178,-88.4054,1.42,15.8,1111122 
NERRS,ioos:station:NOAA.NERRS:gndbhwq:1,2016-06-01T12:45:00Z,30.4178,-88.4054,1.43,16.0,1111122 
NERRS,ioos:station:NOAA.NERRS:gndbhwq:1,2016-06-01T13:45:00Z,30.4178,-88.4054,1.47,15.7,1111122 
NERRS,ioos:station:NOAA.NERRS:gndbhwq:1,2016-06-01T14:45:00Z,30.4178,-88.4054,1.45,16.1,1111122 
NERRS,ioos:station:NOAA.NERRS:gndbhwq:1,2016-06-01T15:45:00Z,30.4178,-88.4054,1.43,16.0,1111122 
NERRS,ioos:station:NOAA.NERRS:gndbhwq:1,2016-06-01T16:45:00Z,30.4178,-88.4054,1.32,15.6,1111122 
NERRS,ioos:station:NOAA.NERRS:gndbhwq:1,2016-06-01T17:45:00Z,30.4178,-88.4054,1.25,15.6,1111122 
NERRS,ioos:station:NOAA.NERRS:gndbhwq:1,2016-06-01T18:45:00Z,30.4178,-88.4054,1.18,15.1,1111122 
NERRS,ioos:station:NOAA.NERRS:gndbhwq:1,2016-06-01T19:45:00Z,30.4178,-88.4054,1.18,15.1,1111122 
NERRS,ioos:station:NOAA.NERRS:gndbhwq:1,2016-06-01T20:45:00Z,30.4178,-88.4054,1.16,15.2,1111122 
NERRS,ioos:station:NOAA.NERRS:gndbhwq:1,2016-06-01T21:45:00Z,30.4178,-88.4054,1.18,15.4,1111122 
NERRS,ioos:station:NOAA.NERRS:gndbhwq:1,2016-06-01T22:45:00Z,30.4178,-88.4054,1.17,15.2,1111122 
NERRS,ioos:station:NOAA.NERRS:gndbhwq:1,2016-06-01T23:45:00Z,30.4178,-88.4054,1.18,15.1,1111122 
NERRS,ioos:station:NOAA.NERRS:gndbhwq:1,2016-06-02T00:45:00Z,30.4178,-88.4054,1.2,15.3,1111122 
NERRS,ioos:station:NOAA.NERRS:gndbhwq:1,2016-06-02T02:45:00Z,30.4178,-88.4054,1.34,15.4,1111122 
NERRS,ioos:station:NOAA.NERRS:gndbhwq:1,2016-06-02T03:45:00Z,30.4178,-88.4054,1.33,15.5,1111122 
NERRS,ioos:station:NOAA.NERRS:gndbhwq:1,2016-06-02T04:45:00Z,30.4178,-88.4054,1.34,15.2,1111122 
NERRS,ioos:station:NOAA.NERRS:gndbhwq:1,2016-06-02T05:45:00Z,30.4178,-88.4054,1.29,15.5,1111122 
NERRS,ioos:station:NOAA.NERRS:gndbhwq:1,2016-06-02T06:45:00Z,30.4178,-88.4054,1.34,15.1,1111122 
NERRS,ioos:station:NOAA.NERRS:gndbhwq:1,2016-06-02T07:45:00Z,30.4178,-88.4054,1.37,15.2,1111122 
NERRS,ioos:station:NOAA.NERRS:gndbhwq:1,2016-06-02T08:45:00Z,30.4178,-88.4054,1.42,15.4,1111122 
NERRS,ioos:station:NOAA.NERRS:gndbhwq:1,2016-06-02T09:45:00Z,30.4178,-88.4054,1.5,15.7,1111122 
NERRS,ioos:station:NOAA.NERRS:gndbhwq:1,2016-06-02T10:45:00Z,30.4178,-88.4054,1.53,15.8,1111122 
NERRS,ioos:station:NOAA.NERRS:gndbhwq:1,2016-06-02T11:45:00Z,30.4178,-88.4054,1.56,15.8,1111122 
NERRS,ioos:station:NOAA.NERRS:gndbhwq:1,2016-06-02T12:45:00Z,30.4178,-88.4054,1.53,15.7,1111122 
NERRS,ioos:station:NOAA.NERRS:gndbhwq:1,2016-06-02T13:45:00Z,30.4178,-88.4054,1.51,15.8,1111122 
NERRS,ioos:station:NOAA.NERRS:gndbhwq:1,2016-06-02T14:45:00Z,30.4178,-88.4054,1.53,15.8,1111122 
NERRS,ioos:station:NOAA.NERRS:gndbhwq:1,2016-06-02T15:45:00Z,30.4178,-88.4054,1.47,15.7,1111122 
NERRS,ioos:station:NOAA.NERRS:gndbhwq:1,2016-06-02T16:45:00Z,30.4178,-88.4054,1.42,15.7,1111122 
NERRS,ioos:station:NOAA.NERRS:gndbhwq:1,2016-06-02T17:45:00Z,30.4178,-88.4054,1.29,15.5,1111122 
NERRS,ioos:station:NOAA.NERRS:gndbhwq:1,2016-06-02T18:45:00Z,30.4178,-88.4054,1.23,15.4,1111122 
NERRS,ioos:station:NOAA.NERRS:gndbhwq:1,2016-06-02T19:45:00Z,30.4178,-88.4054,1.2,15.2,1111122 
NERRS,ioos:station:NOAA.NERRS:gndbhwq:1,2016-06-02T20:45:00Z,30.4178,-88.4054,1.14,15.2,1111122 
NERRS,ioos:station:NOAA.NERRS:gndbhwq:1,2016-06-02T21:45:00Z,30.4178,-88.4054,1.15,15.1,1111122 
NERRS,ioos:station:NOAA.NERRS:gndbhwq:1,2016-06-02T22:45:00Z,30.4178,-88.4054,1.19,15.1,1111122 
NERRS,ioos:station:NOAA.NERRS:gndbhwq:1,2016-06-02T23:45:00Z,30.4178,-88.4054,1.2,15.2,1111122 
NERRS,ioos:station:NOAA.NERRS:gndbhwq:1,2016-06-03T00:45:00Z,30.4178,-88.4054,1.19,15.2,1111122 
NERRS,ioos:station:NOAA.NERRS:gndbhwq:1,2016-06-03T01:45:00Z,30.4178,-88.4054,1.2,15.2,1111122 
NERRS,ioos:station:NOAA.NERRS:gndbhwq:1,2016-06-03T02:45:00Z,30.4178,-88.4054,1.25,15.4,1111122 
NERRS,ioos:station:NOAA.NERRS:gndbhwq:1,2016-06-03T03:45:00Z,30.4178,-88.4054,1.37,15.3,1111122 
NERRS,ioos:station:NOAA.NERRS:gndbhwq:1,2016-06-03T04:30:00Z,30.4178,-88.4054,1.41,15.4,1111122 
NERRS,ioos:station:NOAA.NERRS:gndbhwq:1,2016-06-03T05:45:00Z,30.4178,-88.4054,1.43,15.4,1111122 
NERRS,ioos:station:NOAA.NERRS:gndbhwq:1,2016-06-03T06:45:00Z,30.4178,-88.4054,1.44,15.4,1111122 
NERRS,ioos:station:NOAA.NERRS:gndbhwq:1,2016-06-03T07:45:00Z,30.4178,-88.4054,1.47,15.4,1111122 
NERRS,ioos:station:NOAA.NERRS:gndbhwq:1,2016-06-03T08:45:00Z,30.4178,-88.4054,1.5,15.5,1111122 
NERRS,ioos:station:NOAA.NERRS:gndbhwq:1,2016-06-03T10:45:00Z,30.4178,-88.4054,1.65,15.6,1111122 
NERRS,ioos:station:NOAA.NERRS:gndbhwq:1,2016-06-03T11:45:00Z,30.4178,-88.4054,1.68,15.6,1111122 
NERRS,ioos:station:NOAA.NERRS:gndbhwq:1,2016-06-03T12:45:00Z,30.4178,-88.4054,1.65,15.6,1111122 
NERRS,ioos:station:NOAA.NERRS:gndbhwq:1,2016-06-03T13:45:00Z,30.4178,-88.4054,1.64,15.6,1111122 
NERRS,ioos:station:NOAA.NERRS:gndbhwq:1,2016-06-03T14:45:00Z,30.4178,-88.4054,1.62,15.5,1111122 
NERRS,ioos:station:NOAA.NERRS:gndbhwq:1,2016-06-03T15:45:00Z,30.4178,-88.4054,1.59,15.4,1111122 
NERRS,ioos:station:NOAA.NERRS:gndbhwq:1,2016-06-03T16:45:00Z,30.4178,-88.4054,1.54,15.4,1111122 
NERRS,ioos:station:NOAA.NERRS:gndbhwq:1,2016-06-03T17:45:00Z,30.4178,-88.4054,1.45,15.3,1111122 
NERRS,ioos:station:NOAA.NERRS:gndbhwq:1,2016-06-03T18:45:00Z,30.4178,-88.4054,1.35,15.3,1111122 
NERRS,ioos:station:NOAA.NERRS:gndbhwq:1,2016-06-03T19:45:00Z,30.4178,-88.4054,1.27,15.6,1111122 
NERRS,ioos:station:NOAA.NERRS:gndbhwq:1,2016-06-03T20:45:00Z,30.4178,-88.4054,1.18,15.5,1111122 
NERRS,ioos:station:NOAA.NERRS:gndbhwq:1,2016-06-03T21:45:00Z,30.4178,-88.4054,1.13,15.5,1111122 
NERRS,ioos:station:NOAA.NERRS:gndbhwq:1,2016-06-03T22:45:00Z,30.4178,-88.4054,1.2,15.5,1111122 
NERRS,ioos:station:NOAA.NERRS:gndbhwq:1,2016-06-03T23:45:00Z,30.4178,-88.4054,1.12,15.4,1111122 
NERRS,ioos:station:NOAA.NERRS:gndbhwq:1,2016-06-04T00:45:00Z,30.4178,-88.4054,1.21,15.4,1111122 
NERRS,ioos:station:NOAA.NERRS:gndbhwq:1,2016-06-04T01:45:00Z,30.4178,-88.4054,1.21,15.3,1111122 
NERRS,ioos:station:NOAA.NERRS:gndbhwq:1,2016-06-04T02:45:00Z,30.4178,-88.4054,1.21,15.5,1111122 
NERRS,ioos:station:NOAA.NERRS:gndbhwq:1,2016-06-04T03:45:00Z,30.4178,-88.4054,1.35,15.5,1111122 
NERRS,ioos:station:NOAA.NERRS:gndbhwq:1,2016-06-04T04:45:00Z,30.4178,-88.4054,1.39,15.5,1111122 
NERRS,ioos:station:NOAA.NERRS:gndbhwq:1,2016-06-04T05:45:00Z,30.4178,-88.4054,1.36,15.1,1111122 
NERRS,ioos:station:NOAA.NERRS:gndbhwq:1,2016-06-04T06:45:00Z,30.4178,-88.4054,1.31,15.5,1111122 
NERRS,ioos:station:NOAA.NERRS:gndbhwq:1,2016-06-04T07:45:00Z,30.4178,-88.4054,1.31,15.4,1111122 
NERRS,ioos:station:NOAA.NERRS:gndbhwq:1,2016-06-04T08:45:00Z,30.4178,-88.4054,1.45,15.8,1111122 
NERRS,ioos:station:NOAA.NERRS:gndbhwq:1,2016-06-04T09:45:00Z,30.4178,-88.4054,1.56,15.9,1111122 
NERRS,ioos:station:NOAA.NERRS:gndbhwq:1,2016-06-04T10:45:00Z,30.4178,-88.4054,1.62,16.1,1111122 
NERRS,ioos:station:NOAA.NERRS:gndbhwq:1,2016-06-04T11:45:00Z,30.4178,-88.4054,1.69,16.2,1111122 
NERRS,ioos:station:NOAA.NERRS:gndbhwq:1,2016-06-04T12:45:00Z,30.4178,-88.4054,1.72,16.4,1111122 
NERRS,ioos:station:NOAA.NERRS:gndbhwq:1,2016-06-04T13:45:00Z,30.4178,-88.4054,1.77,16.6,1111122 
NERRS,ioos:station:NOAA.NERRS:gndbhwq:1,2016-06-04T14:45:00Z,30.4178,-88.4054,1.71,16.2,1111122 
NERRS,ioos:station:NOAA.NERRS:gndbhwq:1,2016-06-04T15:45:00Z,30.4178,-88.4054,1.69,16.4,1111122 
NERRS,ioos:station:NOAA.NERRS:gndbhwq:1,2016-06-04T16:45:00Z,30.4178,-88.4054,1.59,16.0,1111122 
NERRS,ioos:station:NOAA.NERRS:gndbhwq:1,2016-06-04T17:45:00Z,30.4178,-88.4054,1.6,15.8,1111122 
NERRS,ioos:station:NOAA.NERRS:gndbhwq:1,2016-06-04T18:45:00Z,30.4178,-88.4054,1.5,15.9,1111122 
NERRS,ioos:station:NOAA.NERRS:gndbhwq:1,2016-06-04T19:45:00Z,30.4178,-88.4054,1.47,14.6,1111122 
NERRS,ioos:station:NOAA.NERRS:gndbhwq:1,2016-06-04T20:45:00Z,30.4178,-88.4054,1.31,14.5,1111122 
NERRS,ioos:station:NOAA.NERRS:gndbhwq:1,2016-06-04T21:45:00Z,30.4178,-88.4054,1.14,10.5,1111122 
NERRS,ioos:station:NOAA.NERRS:gndbhwq:1,2016-06-04T22:45:00Z,30.4178,-88.4054,1.17,7.5,1111122 
NERRS,ioos:station:NOAA.NERRS:gndbhwq:1,2016-06-04T23:45:00Z,30.4178,-88.4054,1.11,3.0,1111122 
NERRS,ioos:station:NOAA.NERRS:gndbhwq:1,2016-06-05T00:45:00Z,30.4178,-88.4054,1.16,1.6,1111122 
NERRS,ioos:station:NOAA.NERRS:gndbhwq:1,2016-06-05T01:45:00Z,30.4178,-88.4054,1.13,0.6,1111122 
NERRS,ioos:station:NOAA.NERRS:gndbhwq:1,2016-06-05T02:45:00Z,30.4178,-88.4054,1.17,0.6,1111122 
NERRS,ioos:station:NOAA.NERRS:gndbhwq:1,2016-06-05T03:45:00Z,30.4178,-88.4054,1.09,0.4,1111122 
NERRS,ioos:station:NOAA.NERRS:gndbhwq:1,2016-06-05T04:45:00Z,30.4178,-88.4054,1.32,0.3,1111122 
NERRS,ioos:station:NOAA.NERRS:gndbhwq:1,2016-06-05T05:45:00Z,30.4178,-88.4054,1.38,0.3,1111122 
NERRS,ioos:station:NOAA.NERRS:gndbhwq:1,2016-06-05T06:45:00Z,30.4178,-88.4054,1.3,0.3,1111122 
NERRS,ioos:station:NOAA.NERRS:gndbhwq:1,2016-06-05T07:45:00Z,30.4178,-88.4054,1.45,0.3,1111122 
NERRS,ioos:station:NOAA.NERRS:gndbhwq:1,2016-06-05T08:45:00Z,30.4178,-88.4054,1.32,0.3,1111122 
NERRS,ioos:station:NOAA.NERRS:gndbhwq:1,2016-06-05T09:45:00Z,30.4178,-88.4054,1.44,0.2,1111122 
NERRS,ioos:station:NOAA.NERRS:gndbhwq:1,2016-06-05T10:45:00Z,30.4178,-88.4054,1.54,0.1,1111122 
NERRS,ioos:station:NOAA.NERRS:gndbhwq:1,2016-06-05T11:45:00Z,30.4178,-88.4054,1.62,0.1,1111122 
NERRS,ioos:station:NOAA.NERRS:gndbhwq:1,2016-06-05T12:45:00Z,30.4178,-88.4054,1.68,0.1,1111122 
NERRS,ioos:station:NOAA.NERRS:gndbhwq:1,2016-06-05T13:45:00Z,30.4178,-88.4054,1.73,0.1,1111122 
NERRS,ioos:station:NOAA.NERRS:gndbhwq:1,2016-06-05T14:45:00Z,30.4178,-88.4054,1.77,0.1,1111122 
NERRS,ioos:station:NOAA.NERRS:gndbhwq:1,2016-06-05T15:45:00Z,30.4178,-88.4054,1.79,0.1,1111122 
NERRS,ioos:station:NOAA.NERRS:gndbhwq:1,2016-06-05T16:45:00Z,30.4178,-88.4054,1.7,0.1,1111122 
NERRS,ioos:station:NOAA.NERRS:gndbhwq:1,2016-06-05T17:45:00Z,30.4178,-88.4054,1.6,0.1,1111122 
NERRS,ioos:station:NOAA.NERRS:gndbhwq:1,2016-06-05T18:45:00Z,30.4178,-88.4054,1.53,0.1,1111122 
NERRS,ioos:station:NOAA.NERRS:gndbhwq:1,2016-06-05T19:45:00Z,30.4178,-88.4054,1.5,0.1,1111122 
NERRS,ioos:station:NOAA.NERRS:gndbhwq:1,2016-06-05T20:45:00Z,30.4178,-88.4054,1.39,0.1,1111122 
NERRS,ioos:station:NOAA.NERRS:gndbhwq:1,2016-06-05T21:45:00Z,30.4178,-88.4054,1.24,0.1,1111122 
NERRS,ioos:station:NOAA.NERRS:gndbhwq:1,2016-06-05T22:45:00Z,30.4178,-88.4054,1.17,0.1,1111122 
NERRS,ioos:station:NOAA.NERRS:gndbhwq:1,2016-06-05T23:45:00Z,30.4178,-88.4054,1.09,0.1,1111122 
NERRS,ioos:station:NOAA.NERRS:gndbhwq:1,2016-06-06T00:45:00Z,30.4178,-88.4054,1.12,0.1,1111122 
NERRS,ioos:station:NOAA.NERRS:gndbhwq:1,2016-06-06T01:45:00Z,30.4178,-88.4054,1.11,0.1,1111122 
NERRS,ioos:station:NOAA.NERRS:gndbhwq:1,2016-06-06T02:45:00Z,30.4178,-88.4054,1.14,0.1,1111122 
NERRS,ioos:station:NOAA.NERRS:gndbhwq:1,2016-06-06T03:45:00Z,30.4178,-88.4054,1.17,0.1,1111122 
NERRS,ioos:station:NOAA.NERRS:gndbhwq:1,2016-06-06T04:45:00Z,30.4178,-88.4054,1.2,0.1,1111122 
NERRS,ioos:station:NOAA.NERRS:gndbhwq:1,2016-06-06T05:45:00Z,30.4178,-88.4054,1.26,0.1,1111122 
NERRS,ioos:station:NOAA.NERRS:gndbhwq:1,2016-06-06T06:45:00Z,30.4178,-88.4054,1.33,0.1,1111122 
NERRS,ioos:station:NOAA.NERRS:gndbhwq:1,2016-06-06T07:45:00Z,30.4178,-88.4054,1.37,0.1,1111122 
NERRS,ioos:station:NOAA.NERRS:gndbhwq:1,2016-06-06T08:45:00Z,30.4178,-88.4054,1.44,0.1,1111122 
NERRS,ioos:station:NOAA.NERRS:gndbhwq:1,2016-06-06T09:45:00Z,30.4178,-88.4054,1.45,0.1,1111122 
NERRS,ioos:station:NOAA.NERRS:gndbhwq:1,2016-06-06T10:45:00Z,30.4178,-88.4054,1.5,0.1,1111122 
NERRS,ioos:station:NOAA.NERRS:gndbhwq:1,2016-06-06T11:45:00Z,30.4178,-88.4054,1.56,0.1,1111122 
NERRS,ioos:station:NOAA.NERRS:gndbhwq:1,2016-06-06T13:45:00Z,30.4178,-88.4054,1.7,11.2,1111122 
NERRS,ioos:station:NOAA.NERRS:gndbhwq:1,2016-06-06T14:45:00Z,30.4178,-88.4054,1.71,0.8,1111122 
NERRS,ioos:station:NOAA.NERRS:gndbhwq:1,2016-06-06T15:45:00Z,30.4178,-88.4054,1.74,14.8,1111122 
NERRS,ioos:station:NOAA.NERRS:gndbhwq:1,2016-06-06T16:45:00Z,30.4178,-88.4054,1.74,1.3,1111122 
NERRS,ioos:station:NOAA.NERRS:gndbhwq:1,2016-06-06T17:45:00Z,30.4178,-88.4054,1.72,0.6,1111122 
NERRS,ioos:station:NOAA.NERRS:gndbhwq:1,2016-06-06T18:45:00Z,30.4178,-88.4054,1.66,0.4,1111122 
NERRS,ioos:station:NOAA.NERRS:gndbhwq:1,2016-06-06T20:45:00Z,30.4178,-88.4054,1.48,0.2,1111122 
NERRS,ioos:station:NOAA.NERRS:gndbhwq:1,2016-06-06T21:45:00Z,30.4178,-88.4054,1.4,0.1,1111122 
NERRS,ioos:station:NOAA.NERRS:gndbhwq:1,2016-06-06T22:45:00Z,30.4178,-88.4054,1.27,0.1,1111122 
NERRS,ioos:station:NOAA.NERRS:gndbhwq:1,2016-06-06T23:45:00Z,30.4178,-88.4054,1.2,0.1,1111122 
NERRS,ioos:station:NOAA.NERRS:gndbhwq:1,2016-06-07T00:45:00Z,30.4178,-88.4054,1.2,0.1,1111122 
NERRS,ioos:station:NOAA.NERRS:gndbhwq:1,2016-06-07T01:45:00Z,30.4178,-88.4054,1.22,0.1,1111122 
NERRS,ioos:station:NOAA.NERRS:gndbhwq:1,2016-06-07T02:45:00Z,30.4178,-88.4054,1.24,0.1,1111122 
NERRS,ioos:station:NOAA.NERRS:gndbhwq:1,2016-06-07T03:45:00Z,30.4178,-88.4054,1.27,0.1,1111122 
NERRS,ioos:station:NOAA.NERRS:gndbhwq:1,2016-06-07T04:45:00Z,30.4178,-88.4054,1.28,0.1,1111122 
NERRS,ioos:station:NOAA.NERRS:gndbhwq:1,2016-06-07T05:45:00Z,30.4178,-88.4054,1.28,0.1,1111122 
NERRS,ioos:station:NOAA.NERRS:gndbhwq:1,2016-06-07T06:45:00Z,30.4178,-88.4054,1.32,0.1,1111122 
NERRS,ioos:station:NOAA.NERRS:gndbhwq:1,2016-06-07T07:45:00Z,30.4178,-88.4054,1.37,0.1,1111122 
NERRS,ioos:station:NOAA.NERRS:gndbhwq:1,2016-06-07T08:45:00Z,30.4178,-88.4054,1.44,0.1,1111122 
NERRS,ioos:station:NOAA.NERRS:gndbhwq:1,2016-06-07T11:45:00Z,30.4178,-88.4054,1.59,0.2,1111122 
NERRS,ioos:station:NOAA.NERRS:gndbhwq:1,2016-06-07T12:45:00Z,30.4178,-88.4054,1.63,12.5,1111122 
NERRS,ioos:station:NOAA.NERRS:gndbhwq:1,2016-06-07T13:45:00Z,30.4178,-88.4054,1.71,14.8,1111122 
NERRS,ioos:station:NOAA.NERRS:gndbhwq:1,2016-06-07T14:45:00Z,30.4178,-88.4054,1.78,15.5,1111122 
NERRS,ioos:station:NOAA.NERRS:gndbhwq:1,2016-06-07T15:45:00Z,30.4178,-88.4054,1.82,15.7,1111122 
NERRS,ioos:station:NOAA.NERRS:gndbhwq:1,2016-06-07T16:45:00Z,30.4178,-88.4054,1.83,15.7,1111122 
NERRS,ioos:station:NOAA.NERRS:gndbhwq:1,2016-06-07T17:45:00Z,30.4178,-88.4054,1.78,13.4,1111122 
NERRS,ioos:station:NOAA.NERRS:gndbhwq:1,2016-06-07T18:45:00Z,30.4178,-88.4054,1.76,2.5,1111122 
NERRS,ioos:station:NOAA.NERRS:gndbhwq:1,2016-06-07T19:45:00Z,30.4178,-88.4054,1.68,1.0,1111122 
NERRS,ioos:station:NOAA.NERRS:gndbhwq:1,2016-06-07T20:45:00Z,30.4178,-88.4054,1.6,0.5,1111122 
NERRS,ioos:station:NOAA.NERRS:gndbhwq:1,2016-06-07T21:45:00Z,30.4178,-88.4054,1.51,0.3,1111122 
NERRS,ioos:station:NOAA.NERRS:gndbhwq:1,2016-06-07T22:45:00Z,30.4178,-88.4054,1.41,0.2,1111122 
NERRS,ioos:station:NOAA.NERRS:gndbhwq:1,2016-06-07T23:45:00Z,30.4178,-88.4054,1.3,0.2,1111122 
NERRS,ioos:station:NOAA.NERRS:gndbhwq:1,2016-06-08T00:45:00Z,30.4178,-88.4054,1.22,0.3,1111122 
NERRS,ioos:station:NOAA.NERRS:gndbhwq:1,2016-06-08T01:45:00Z,30.4178,-88.4054,1.18,0.1,1111122 
NERRS,ioos:station:NOAA.NERRS:gndbhwq:1,2016-06-08T02:45:00Z,30.4178,-88.4054,1.15,0.1,1111122 
NERRS,ioos:station:NOAA.NERRS:gndbhwq:1,2016-06-08T03:45:00Z,30.4178,-88.4054,1.16,0.1,1111122 
NERRS,ioos:station:NOAA.NERRS:gndbhwq:1,2016-06-08T04:45:00Z,30.4178,-88.4054,1.17,0.1,1111122 
NERRS,ioos:station:NOAA.NERRS:gndbhwq:1,2016-06-08T05:45:00Z,30.4178,-88.4054,1.2,0.1,1111122 
NERRS,ioos:station:NOAA.NERRS:gndbhwq:1,2016-06-08T06:45:00Z,30.4178,-88.4054,1.24,0.1,1111122 
NERRS,ioos:station:NOAA.NERRS:gndbhwq:1,2016-06-08T07:45:00Z,30.4178,-88.4054,1.29,0.1,1111122 
NERRS,ioos:station:NOAA.NERRS:gndbhwq:1,2016-06-08T08:45:00Z,30.4178,-88.4054,1.31,0.1,1111122 
NERRS,ioos:station:NOAA.NERRS:gndbhwq:1,2016-06-08T09:45:00Z,30.4178,-88.4054,1.35,0.2,1111122 
NERRS,ioos:station:NOAA.NERRS:gndbhwq:1,2016-06-08T10:45:00Z,30.4178,-88.4054,1.4,10.4,1111122 
NERRS,ioos:station:NOAA.NERRS:gndbhwq:1,2016-06-08T11:45:00Z,30.4178,-88.4054,1.45,11.4,1111122 
NERRS,ioos:station:NOAA.NERRS:gndbhwq:1,2016-06-08T12:45:00Z,30.4178,-88.4054,1.49,11.7,1111122 
NERRS,ioos:station:NOAA.NERRS:gndbhwq:1,2016-06-08T13:45:00Z,30.4178,-88.4054,1.52,12.1,1111122 
NERRS,ioos:station:NOAA.NERRS:gndbhwq:1,2016-06-08T14:45:00Z,30.4178,-88.4054,1.55,14.1,1111122 
NERRS,ioos:station:NOAA.NERRS:gndbhwq:1,2016-06-08T15:45:00Z,30.4178,-88.4054,1.6,15.0,1111122 
NERRS,ioos:station:NOAA.NERRS:gndbhwq:1,2016-06-08T16:45:00Z,30.4178,-88.4054,1.62,15.7,1111122 
NERRS,ioos:station:NOAA.NERRS:gndbhwq:1,2016-06-08T17:45:00Z,30.4178,-88.4054,1.61,15.9,1111122 
NERRS,ioos:station:NOAA.NERRS:gndbhwq:1,2016-06-08T18:45:00Z,30.4178,-88.4054,1.58,15.8,1111122 
NERRS,ioos:station:NOAA.NERRS:gndbhwq:1,2016-06-08T19:45:00Z,30.4178,-88.4054,1.51,15.6,1111122 
NERRS,ioos:station:NOAA.NERRS:gndbhwq:1,2016-06-08T20:45:00Z,30.4178,-88.4054,1.49,16.0,1111122 
NERRS,ioos:station:NOAA.NERRS:gndbhwq:1,2016-06-08T21:45:00Z,30.4178,-88.4054,1.41,16.0,1111122 
NERRS,ioos:station:NOAA.NERRS:gndbhwq:1,2016-06-08T22:45:00Z,30.4178,-88.4054,1.32,16.0,1111122 
NERRS,ioos:station:NOAA.NERRS:gndbhwq:1,2016-06-08T23:45:00Z,30.4178,-88.4054,1.22,15.9,1111122 
NERRS,ioos:station:NOAA.NERRS:gndbhwq:1,2016-06-09T00:45:00Z,30.4178,-88.4054,1.16,15.5,1111122 
NERRS,ioos:station:NOAA.NERRS:gndbhwq:1,2016-06-09T01:45:00Z,30.4178,-88.4054,1.13,15.0,1111122 
NERRS,ioos:station:NOAA.NERRS:gndbhwq:1,2016-06-09T02:45:00Z,30.4178,-88.4054,1.1,15.7,1111122 
NERRS,ioos:station:NOAA.NERRS:gndbhwq:1,2016-06-09T03:45:00Z,30.4178,-88.4054,1.08,16.1,1111122 
NERRS,ioos:station:NOAA.NERRS:gndbhwq:1,2016-06-09T04:45:00Z,30.4178,-88.4054,1.08,16.1,1111122 
NERRS,ioos:station:NOAA.NERRS:gndbhwq:1,2016-06-09T05:45:00Z,30.4178,-88.4054,1.1,15.8,1111122 
NERRS,ioos:station:NOAA.NERRS:gndbhwq:1,2016-06-09T06:45:00Z,30.4178,-88.4054,1.11,16.0,1111122 
NERRS,ioos:station:NOAA.NERRS:gndbhwq:1,2016-06-09T07:45:00Z,30.4178,-88.4054,1.15,16.1,1111122 
NERRS,ioos:station:NOAA.NERRS:gndbhwq:1,2016-06-09T08:45:00Z,30.4178,-88.4054,1.19,16.0,1111122 
NERRS,ioos:station:NOAA.NERRS:gndbhwq:1,2016-06-09T09:45:00Z,30.4178,-88.4054,1.23,16.2,1111122 
NERRS,ioos:station:NOAA.NERRS:gndbhwq:1,2016-06-09T10:45:00Z,30.4178,-88.4054,1.32,16.2,1111122 
NERRS,ioos:station:NOAA.NERRS:gndbhwq:1,2016-06-09T11:45:00Z,30.4178,-88.4054,1.34,16.3,1111122 
NERRS,ioos:station:NOAA.NERRS:gndbhwq:1,2016-06-09T12:45:00Z,30.4178,-88.4054,1.4,16.3,1111122 
NERRS,ioos:station:NOAA.NERRS:gndbhwq:1,2016-06-09T13:45:00Z,30.4178,-88.4054,1.43,16.4,1111122 
NERRS,ioos:station:NOAA.NERRS:gndbhwq:1,2016-06-09T14:45:00Z,30.4178,-88.4054,1.5,16.5,1111122 
NERRS,ioos:station:NOAA.NERRS:gndbhwq:1,2016-06-09T15:45:00Z,30.4178,-88.4054,1.55,16.5,1111122 
NERRS,ioos:station:NOAA.NERRS:gndbhwq:1,2016-06-09T16:45:00Z,30.4178,-88.4054,1.59,16.6,1111122 
NERRS,ioos:station:NOAA.NERRS:gndbhwq:1,2016-06-09T17:45:00Z,30.4178,-88.4054,1.56,16.5,1111122 
NERRS,ioos:station:NOAA.NERRS:gndbhwq:1,2016-06-09T18:45:00Z,30.4178,-88.4054,1.57,16.6,1111122 
NERRS,ioos:station:NOAA.NERRS:gndbhwq:1,2016-06-09T19:45:00Z,30.4178,-88.4054,1.49,16.4,1111122 
NERRS,ioos:station:NOAA.NERRS:gndbhwq:1,2016-06-09T20:45:00Z,30.4178,-88.4054,1.45,16.4,1111122 
NERRS,ioos:station:NOAA.NERRS:gndbhwq:1,2016-06-09T21:45:00Z,30.4178,-88.4054,1.4,16.2,1111122 
NERRS,ioos:station:NOAA.NERRS:gndbhwq:1,2016-06-09T22:45:00Z,30.4178,-88.4054,1.36,16.1,1111122 
NERRS,ioos:station:NOAA.NERRS:gndbhwq:1,2016-06-09T23:45:00Z,30.4178,-88.4054,1.26,16.2,1111122 
NERRS,ioos:station:NOAA.NERRS:gndbhwq:1,2016-06-10T00:45:00Z,30.4178,-88.4054,1.19,16.1,1111122 
NERRS,ioos:station:NOAA.NERRS:gndbhwq:1,2016-06-10T01:45:00Z,30.4178,-88.4054,1.12,16.1,1111122 
NERRS,ioos:station:NOAA.NERRS:gndbhwq:1,2016-06-10T02:45:00Z,30.4178,-88.4054,1.12,16.3,1111122 
NERRS,ioos:station:NOAA.NERRS:gndbhwq:1,2016-06-10T03:45:00Z,30.4178,-88.4054,1.12,16.2,1111122 
NERRS,ioos:station:NOAA.NERRS:gndbhwq:1,2016-06-10T04:45:00Z,30.4178,-88.4054,1.19,16.5,1111122 
NERRS,ioos:station:NOAA.NERRS:gndbhwq:1,2016-06-10T05:45:00Z,30.4178,-88.4054,1.17,16.2,1111122 
NERRS,ioos:station:NOAA.NERRS:gndbhwq:1,2016-06-10T06:45:00Z,30.4178,-88.4054,1.18,16.2,1111122 
NERRS,ioos:station:NOAA.NERRS:gndbhwq:1,2016-06-10T07:45:00Z,30.4178,-88.4054,1.18,16.2,1111122 
NERRS,ioos:station:NOAA.NERRS:gndbhwq:1,2016-06-10T08:45:00Z,30.4178,-88.4054,1.23,15.9,1111122 
NERRS,ioos:station:NOAA.NERRS:gndbhwq:1,2016-06-10T09:45:00Z,30.4178,-88.4054,1.27,15.8,1111122 
NERRS,ioos:station:NOAA.NERRS:gndbhwq:1,2016-06-10T10:45:00Z,30.4178,-88.4054,1.33,15.7,1111122 
NERRS,ioos:station:NOAA.NERRS:gndbhwq:1,2016-06-10T11:45:00Z,30.4178,-88.4054,1.35,15.8,1111122 
NERRS,ioos:station:NOAA.NERRS:gndbhwq:1,2016-06-10T12:45:00Z,30.4178,-88.4054,1.39,15.9,1111122 
NERRS,ioos:station:NOAA.NERRS:gndbhwq:1,2016-06-10T13:45:00Z,30.4178,-88.4054,1.4,15.9,1111122 
NERRS,ioos:station:NOAA.NERRS:gndbhwq:1,2016-06-10T14:45:00Z,30.4178,-88.4054,1.45,15.9,1111122 
NERRS,ioos:station:NOAA.NERRS:gndbhwq:1,2016-06-10T15:45:00Z,30.4178,-88.4054,1.49,15.8,1111122 
NERRS,ioos:station:NOAA.NERRS:gndbhwq:1,2016-06-10T16:45:00Z,30.4178,-88.4054,1.5,15.8,1111122 
NERRS,ioos:station:NOAA.NERRS:gndbhwq:1,2016-06-10T17:45:00Z,30.4178,-88.4054,1.48,15.8,1111122 
NERRS,ioos:station:NOAA.NERRS:gndbhwq:1,2016-06-10T18:45:00Z,30.4178,-88.4054,1.46,15.8,1111122 
NERRS,ioos:station:NOAA.NERRS:gndbhwq:1,2016-06-10T19:45:00Z,30.4178,-88.4054,1.42,15.8,1111122 
NERRS,ioos:station:NOAA.NERRS:gndbhwq:1,2016-06-10T20:45:00Z,30.4178,-88.4054,1.41,15.7,1111122 
NERRS,ioos:station:NOAA.NERRS:gndbhwq:1,2016-06-10T21:45:00Z,30.4178,-88.4054,1.4,15.7,1111122 
NERRS,ioos:station:NOAA.NERRS:gndbhwq:1,2016-06-10T22:45:00Z,30.4178,-88.4054,1.33,15.7,1111122 
NERRS,ioos:station:NOAA.NERRS:gndbhwq:1,2016-06-10T23:45:00Z,30.4178,-88.4054,1.29,15.6,1111122 
NERRS,ioos:station:NOAA.NERRS:gndbhwq:1,2016-06-11T00:45:00Z,30.4178,-88.4054,1.2,15.3,1111122 
NERRS,ioos:station:NOAA.NERRS:gndbhwq:1,2016-06-11T01:45:00Z,30.4178,-88.4054,1.19,14.7,1111122 
NERRS,ioos:station:NOAA.NERRS:gndbhwq:1,2016-06-11T02:45:00Z,30.4178,-88.4054,1.18,15.1,1111122 
NERRS,ioos:station:NOAA.NERRS:gndbhwq:1,2016-06-11T03:45:00Z,30.4178,-88.4054,1.17,15.0,1111122 
NERRS,ioos:station:NOAA.NERRS:gndbhwq:1,2016-06-11T04:45:00Z,30.4178,-88.4054,1.18,15.2,1111122 
NERRS,ioos:station:NOAA.NERRS:gndbhwq:1,2016-06-11T05:45:00Z,30.4178,-88.4054,1.19,15.4,1111122 
NERRS,ioos:station:NOAA.NERRS:gndbhwq:1,2016-06-11T06:45:00Z,30.4178,-88.4054,1.23,15.3,1111122 
NERRS,ioos:station:NOAA.NERRS:gndbhwq:1,2016-06-11T07:45:00Z,30.4178,-88.4054,1.26,15.2,1111122 
NERRS,ioos:station:NOAA.NERRS:gndbhwq:1,2016-06-11T08:45:00Z,30.4178,-88.4054,1.21,14.9,1111122 
NERRS,ioos:station:NOAA.NERRS:gndbhwq:1,2016-06-11T09:45:00Z,30.4178,-88.4054,1.3,14.9,1111122 
NERRS,ioos:station:NOAA.NERRS:gndbhwq:1,2016-06-11T10:45:00Z,30.4178,-88.4054,1.35,15.2,1111122 
NERRS,ioos:station:NOAA.NERRS:gndbhwq:1,2016-06-11T11:45:00Z,30.4178,-88.4054,1.41,15.3,1111122 
NERRS,ioos:station:NOAA.NERRS:gndbhwq:1,2016-06-11T12:45:00Z,30.4178,-88.4054,1.29,15.0,1111122 
NERRS,ioos:station:NOAA.NERRS:gndbhwq:1,2016-06-11T13:45:00Z,30.4178,-88.4054,1.35,14.7,1111122 
NERRS,ioos:station:NOAA.NERRS:gndbhwq:1,2016-06-11T14:45:00Z,30.4178,-88.4054,1.33,15.4,1111122 